Weather History for KHYA - September, 2014

Change the Weather History Date:

Saturday, September 20, 2014

  Actual Average Record
Temperature  
Mean Temperature 52 °F -  
Max Temperature 69 °F 70 °F 86 °F (1946)
Min Temperature 37 °F 52 °F 33 °F (1964)
Degree Days  
Heating Degree Days 12    
Growing Degree Days 2 (Base 50)    
Moisture  
Dew Point 50 °F    
Average Humidity 73    
Maximum Humidity 89    
Minimum Humidity 59    
Precipitation  
Precipitation 0.00 in - - ()
Sea Level Pressure  
Sea Level Pressure 30.28 in    
Wind  
Wind Speed 4 mph (South)    
Max Wind Speed 14 mph    
Max Gust Speed 20 mph    
Visibility 10 miles    
Events      
Averages and records for this station are not official NWS values.
T = Trace of Precipitation, MM = Missing Value Source: NWS Daily Summary

Daily Weather History Graph

Daily Weather History Graph

Search for Another Location

Airport or City:

Trip Planner

Search our weather history database for the weather conditions in past years. The results will help you decide how hot, cold, wet, or windy it might be!

Date:

Astronomy

Sep. 20, 2014 Rise Set
Actual Time 6:26 AM EDT 6:41 PM EDT
Civil Twilight 5:58 AM EDT 7:09 PM EDT
Nautical Twilight 5:26 AM EDT 7:42 PM EDT
Astronomical Twilight 4:52 AM EDT 8:15 PM EDT
Moon 3:00 AM EDT (9/20) 4:45 PM EDT (9/20)
Length of Visible Light 13h 10m
Length of Day
12h 15m
Waning Crescent, 11% of the Moon is Illuminated
Sep 20
Waning Crescent
Sep 24
New
Oct 1
First Quarter
Oct 8
Full
Oct 15
Last Quarter

Hourly Weather History & Observations

Time (EDT) Temp. Dew Point Humidity Pressure Visibility Wind Dir Wind Speed Gust Speed Precip Events Conditions
12:56 AM 37.9 °F 34.0 °F 86% 30.40 in 10.0 mi Calm Calm - N/A   Clear
1:56 AM 39.9 °F 36.0 °F 86% 30.39 in 10.0 mi Calm Calm - N/A   Partly Cloudy
2:56 AM 44.1 °F 39.0 °F 82% 30.38 in 10.0 mi Calm Calm - N/A   Mostly Cloudy
3:56 AM 44.1 °F 39.9 °F 85% 30.38 in 10.0 mi Calm Calm - N/A   Overcast
4:56 AM 46.0 °F 42.1 °F 86% 30.38 in 10.0 mi Calm Calm - N/A   Overcast
5:56 AM 45.0 °F 39.9 °F 82% 30.37 in 10.0 mi Calm Calm - N/A   Partly Cloudy
6:56 AM 43.0 °F 39.9 °F 89% 30.37 in 10.0 mi Calm Calm - N/A   Partly Cloudy
7:56 AM 55.9 °F 46.9 °F 72% 30.36 in 10.0 mi South 6.9 mph - N/A   Clear
8:56 AM 60.1 °F 48.0 °F 64% 30.35 in 10.0 mi South 5.8 mph - N/A   Scattered Clouds
9:07 AM 61.0 °F 48.0 °F 62% 30.35 in 10.0 mi South 9.2 mph - N/A   Mostly Cloudy
9:14 AM 61.0 °F 48.0 °F 62% 30.35 in 10.0 mi South 9.2 mph - N/A   Scattered Clouds
9:56 AM 61.0 °F 48.9 °F 64% 30.34 in 10.0 mi SSE 10.4 mph - N/A   Partly Cloudy
10:56 AM 62.1 °F 50.0 °F 65% 30.32 in 10.0 mi SSE 10.4 mph - N/A   Clear
11:56 AM 64.0 °F 52.0 °F 65% 30.30 in 10.0 mi SSE 9.2 mph 17.3 mph N/A   Clear
12:56 PM 66.9 °F 54.0 °F 63% 30.28 in 10.0 mi South 11.5 mph 19.6 mph N/A   Partly Cloudy
1:56 PM 68.0 °F 53.1 °F 59% 30.25 in 10.0 mi South 13.8 mph - N/A   Clear
2:56 PM 68.0 °F 54.0 °F 61% 30.23 in 10.0 mi South 13.8 mph - N/A   Clear
3:56 PM 68.0 °F 55.0 °F 63% 30.21 in 10.0 mi South 11.5 mph - N/A   Clear
4:56 PM 68.0 °F 57.0 °F 68% 30.20 in 10.0 mi South 10.4 mph - N/A   Clear
5:56 PM 66.9 °F 55.9 °F 68% 30.19 in 10.0 mi South 10.4 mph - N/A   Clear
6:56 PM 66.0 °F 57.0 °F 73% 30.17 in 10.0 mi SSW 9.2 mph - N/A   Clear
7:56 PM 66.0 °F 57.9 °F 75% 30.17 in 10.0 mi South 8.1 mph - N/A   Clear
8:56 PM 64.9 °F 59.0 °F 81% 30.17 in 10.0 mi South 5.8 mph - N/A   Clear
9:56 PM 64.9 °F 60.1 °F 84% 30.16 in 10.0 mi South 4.6 mph - N/A   Mostly Cloudy
10:56 PM 66.9 °F 60.1 °F 79% 30.14 in 10.0 mi South 3.5 mph - N/A   Overcast
11:56 PM 66.0 °F 60.1 °F 81% 30.12 in 10.0 mi SE 4.6 mph - N/A   Overcast